Regional Weather Roundup
Issued by NWS

Home | Current Version | Previous Version | Text Only | Print | Product List | Glossary On
Versions: 1 2 3 4 5 6 7 8 9 10 11 12 13 14 15 16 17 18 19 20 21 22 23 24 25 26 27 28 29 30 31 32 33 34 35 36 37 38 39 40 41 42 43 44 45 46 47 48 49 50
000
ASUS43 KLMK 170410
RWRKY
KENTUCKY REGIONAL WEATHER ROUNDUP
NATIONAL WEATHER SERVICE LOUISVILLE KY
1200 AM EDT THU AUG 17 2017

NOTE "FAIR" INDICATES FEW OR NO CLOUDS BELOW 12,000 FEET
WITH NO SIGNIFICANT WEATHER AND/OR OBSTRUCTIONS TO VISIBILITY.

KYZ001>023-026-027-061>063-070>075-170500-
WESTERN AND SOUTH CENTRAL KENTUCKY

CITY           SKY/WX    TMP DP  RH WIND       PRES   REMARKS
PADUCAH        PTCLDY    78  74  87 S5        29.96F
HENDERSON      CLOUDY    76  75  97 S6        29.96S
OWENSBORO      PTCLDY    77  74  90 S6        29.97S
HOPKINSVILLE   CLEAR     78  76  93 S3        29.99S
BOWLING GREEN  CLEAR     79  76  90 SW6       30.00S
GLASGOW        PTCLDY    75  75 100 CALM      30.01S
$$

KYZ024-025-028>034-038-045-046-053-170500-
NORTH CENTRAL KENTUCKY

CITY           SKY/WX    TMP DP  RH WIND       PRES   REMARKS
LOUISVILLE/SDF MOCLDY    80  70  71 S7        29.97F
LOUISVILLE/LOU PTCLDY    79  73  82 S7        29.99S
FORT KNOX      CLEAR     75  71  87 SE3       29.98S
$$

KYZ035>037-039>044-047>052-055>060-089>105-170500-
NORTHEAST KENTUCKY

CITY           SKY/WX    TMP DP  RH WIND       PRES   REMARKS
LEXINGTON      CLEAR     77  70  79 S3        30.03F
COVINGTON      MOCLDY    77  73  87 S7        29.99S
FRANKFORT      CLEAR     77  69  76 S5        30.00F
$$

KYZ054-064>069-076>088-106>120-170500-
SOUTHEAST KENTUCKY

CITY           SKY/WX    TMP DP  RH WIND       PRES   REMARKS
JACKSON        CLOUDY    74  71  91 CALM      30.07S
LONDON         CLOUDY    75  73  93 CALM      30.06S
SOMERSET       CLEAR     73  73 100 CALM      30.05F
MIDDLESBORO    CLOUDY    74  74 100 CALM      30.09S
MONTICELLO     CLOUDY    73  72  96 NE9       30.06F
$$




USA.gov is the U.S. government's official web portal to all federal, state and local government web resources and services.